Вернуться в каталог

STARLINK-5178

АктивенСвязьVLEO
NORAD 54083·PAYLOAD·🇺🇸 United States

Запущен Oct 20, 2022 с Cape Canaveral Space Force Station

Loading…

Ближайшие Пролёты (ближайшие 24 часа)

TLE

СвежийSource: CelesTrak SupGP

Эпоха: Sep 14, 2026, 21:54 UTC

1 54083C 22136AJ  26257.91298611  .00084243  00000+0  34765-2 0  2577
2 54083  53.1611 203.2195 0001300  92.4980 209.9727 15.23471933    12

Отслеживайте STARLINK-5178 в реальном времени с AllMySat

Download on the App Store